x

Gulf Of Maine - 78 Nm East Of Portsmouth, Nh (44005) Wave Buoy

5:50am - Fri 26th Aug 2016 All times are EDT. -4 hours from GMT.

  • Sig Wave height 3.9ft
  • Swell Direction
  • Peak Period 6s
  • Average Period 4s
  • Wind
    18mph, 20mph gusts
  • Sea Temp 68°f
  • 空気 Temp 70°f
  • Sea Pressure 1013.5mb
  • Gulf Of Maine - 78 Nm East Of Portsmouth, Nh
  • Gulf Of Maine - 78 Nm East Of Portsmouth, Nh

More Historic Weather Station data

Upgrade to MSW Pro to gain access to the past 30 days of data for over 8000 Wavebouys and Weather Stations around the globe.

Join Pro

Comparision Forecast

View Surf forecast
   
Fri 08/26 5:50am 4ft 6s 4s 18 20 mph 1013.5mb 68f 70f
4:50am 4.5ft 6s 5s 18 22 mph 1013.2mb 68f 71f
3:50am 4.5ft 6s 5s 18 22 mph 1013.3mb 68f 71f
2:50am 4.5ft 6s 5s 18 22 mph 1013.9mb 68f 71f
1:50am 5ft 6s 5s 20 22 mph 1014mb 68f 71f
12:50am 5ft 6s 5s 22 25 mph 1014.1mb 68f 71f
Thu 08/25 11:50pm 5ft 6s 5s 18 22 mph 1014.8mb 68f 71f
10:50pm 5ft 6s 5s 20 22 mph 1015mb 68f 71f
9:50pm 5ft 6s 5s 20 25 mph 1014.8mb 68f 71f
8:50pm 5ft 6s 5s 20 22 mph 1015mb 68f 71f
7:50pm 4.5ft 6s 5s 20 22 mph 1014.6mb 68f 71f
6:50pm 5ft 6s 5s 20 22 mph 1014.7mb 69f 71f
5:50pm 4.5ft 6s 5s 20 22 mph 1014.7mb 68f 71f
4:50pm 4.5ft 5s 5s 20 25 mph 1015mb 68f 71f
3:50pm 4.5ft 6s 5s 18 22 mph 1015.3mb 68f 71f
2:50pm 4.5ft 5s 5s 18 22 mph 1016.2mb 68f 71f
1:50pm 4.5ft 5s 5s 20 25 mph 1016.8mb 68f 71f
12:50pm 4.5ft 5s 5s 22 25 mph 1017.2mb 68f 71f
11:50am 4.5ft 6s 5s 22 25 mph 1017.5mb 68f 71f
10:50am 4.5ft 5s 4s 20 25 mph 1018mb 68f 71f
9:50am 4.5ft 5s 4s 22 25 mph 1018mb 68f 70f
8:50am 4ft 5s 4s 20 25 mph 1018.1mb 68f 70f
7:50am 4ft 5s 4s 20 22 mph 1018.3mb 68f 70f
6:50am 3.5ft 5s 4s 18 20 mph 1018.5mb 68f 70f
5:50am 3.5ft 5s 4s 18 20 mph 1018.5mb 68f 70f
4:50am 3.5ft 5s 4s 16 20 mph 1018.4mb 68f 70f
3:50am 3ft 4s 4s 16 20 mph 1018mb 68f 70f
2:50am 3ft 4s 4s 16 18 mph 1018.8mb 69f 70f
1:50am 2.5ft 5s 4s 16 18 mph 1019.3mb 69f 70f
12:50am 2.5ft 4s 4s 16 18 mph 1019.6mb 69f 71f
Wed 08/24 10:50pm 2ft 11s 4s 16 18 mph 1020.3mb 69f 71f
9:50pm 1.6ft 12s 4s 13 16 mph 1020.8mb 69f 72f
8:50pm 1.6ft 12s 4s 13
mph
1021.1mb 69f 72f
7:50pm 2ft 12s 4s 13 16 mph 1020.6mb 69f 71f
6:50pm 2ft 11s 4s 13 16 mph 1020.7mb 69f 71f
5:50pm 2ft 11s 4s 16 18 mph 1020.5mb 70f 71f
4:50pm 2ft 11s 4s 16 18 mph 1020.7mb 69f 71f
3:50pm 2ft 4s 4s 13 16 mph 1021.5mb 69f 71f
2:50pm 2ft 4s 4s 11 13 mph 1022mb 69f 70f
1:50pm 2ft 4s 4s 11
mph
1022.4mb 69f 70f
12:50pm 2ft 4s  -  11
mph
1022.7mb 69f 69f
11:50am 2ft 5s 4s 11
mph
1023.1mb 69f 68f
10:50am 2ft 5s 5s 9 11 mph 1023.4mb 69f 68f
9:50am 2ft 5s 4s 11
mph
1023.6mb 69f 68f
8:50am 2ft 4s 4s 11 13 mph 1023.7mb 69f 68f
7:50am 2ft 5s 4s 11 13 mph 1023.5mb 69f 69f
5:50am 2ft 5s 5s 9 11 mph 1022.6mb 69f 68f
4:50am 2ft 5s 4s 11 13 mph 1022.4mb 68f 69f
3:50am 2.5ft 5s 4s 9 11 mph 1022.6mb 68f 69f
2:50am 2.5ft 5s 4s 11
mph
1022.5mb 68f 69f
1:50am 2.5ft 4s 4s 11 13 mph 1022.7mb 69f 69f
12:50am 2.5ft 4s 4s 13 16 mph 1023.1mb 69f 71f
Tue 08/23 11:50pm 2.5ft 4s 4s 13 16 mph 1023mb 69f 70f
10:50pm 3ft 4s 4s 18 20 mph 1022.9mb 69f 70f
9:50pm 2.5ft 4s 4s 18 22 mph 1022.9mb 69f 71f
8:50pm 2.5ft 3s 4s 18 22 mph 1022.5mb 69f 70f
7:50pm 2.5ft 9s 4s 20 22 mph 1022.1mb 69f 70f
6:50pm 2ft 9s 4s 13 16 mph 1022.2mb 69f 70f
5:50pm 2ft 10s 4s 13 16 mph 1022.2mb 69f 70f
4:50pm 2ft 9s 4s 13 16 mph 1022.6mb 69f 69f
3:50pm 2ft 10s 4s 13 16 mph 1023mb 69f 69f
2:50pm 1.6ft 4s 4s 16 18 mph 1023.3mb 69f 69f
1:50pm 2ft 5s 4s 13 16 mph 1023.5mb 69f 68f
12:50pm 2ft 9s 4s 13 16 mph 1023.7mb 69f 68f
11:50am 2ft 10s 4s 13
mph
1023.8mb 69f 67f
10:50am 2.5ft 10s 4s 13 18 mph 1024mb 69f 67f
9:50am 2.5ft 4s 4s 13 16 mph 1023.9mb 69f 67f
8:50am 2.5ft 4s 4s 16 18 mph 1023.3mb 69f 66f
7:50am 3ft 4s 4s 18 22 mph 1022.8mb 69f 66f
6:50am 2.5ft 4s 4s 18 20 mph 1022.3mb 69f 67f
4:50am 3ft 5s 4s 18 20 mph 1021mb 68f 66f
3:50am 3.5ft 5s 4s 20 25 mph 1020.3mb 68f 66f
2:50am 3.5ft 5s 4s 20 22 mph 1019.8mb 68f 66f
1:50am 4ft 5s 5s 22 25 mph 1019.4mb 68f 66f
12:50am 4ft 5s 5s 20 25 mph 1019mb 68f 66f
Mon 08/22 11:50pm 4.5ft 5s 5s 22 29 mph 1018.3mb 68f 66f
10:50pm 4ft 5s 5s 25 27 mph 1017.6mb 68f 66f
9:50pm 4ft 5s 5s 20 25 mph 1017.6mb 68f 66f
8:50pm 4ft 5s 4s 20 22 mph 1016.9mb 68f 66f
7:50pm 4.5ft 5s 4s 22 27 mph 1015mb 69f 66f
6:50pm 4.5ft 5s 4s 29 34 mph 1013.4mb 69f 67f
5:50pm 3.5ft 4s 4s 27 31 mph 1012.3mb 70f 67f
4:50pm 3.5ft 4s 4s 25 31 mph 1010.9mb 71f 69f
3:50pm 3ft 4s 4s 22 27 mph 1010.1mb 71f 70f
2:50pm 3ft 4s 4s 22 25 mph 1009.6mb 71f 71f
1:50pm 3ft 4s 4s 18 20 mph 1009.2mb 71f 71f
12:50pm 3.5ft 4s 4s 13 16 mph 1009mb 71f 69f
11:50am 3.5ft 4s 4s 18 22 mph 1008.8mb 71f 68f
10:50am 3.5ft 5s 4s 20 25 mph 1007.9mb 71f 68f